[[{"header":{"parameterUnit":"m.s-1","parameterCategory":1,"la1":30.2991,"la2":30.254,"lo1":-89.0895,"lo2":-89.0444,"dy":0.0017,"dx":0.0017,"nx":28,"ny":28,"refTime":"2025-11-09T03:00:00:Z","depth":0,"parameterNumber":2,"parameterNumberName":"U-component_of_WINDS"},"data":[0,0,0,0,0,0,0,0,0,0,0,0,0,0,0,0,0,0,0,0,0,0,0,0,0,0,0,0,0,0,0,0,0,0,0,0,0,0,0,0,0,0,0,0,0,0,0,0,0,0,0,0,0,0,0,0,0,0,1.8587,1.8587,0,1.8595,1.8595,1.8595,1.8573,1.8572,1.8572,1.8571,1.8578,1.8579,1.858,0,0,0,0,0,0,0,0,0,0,0,0,0,1.8554,1.8555,1.8587,1.8587,1.8587,1.8595,1.8595,1.8595,1.8573,1.8572,1.8571,1.8571,1.8578,1.8579,1.858,0,0,0,0,0,0,0,0,0,0,0,0,0,1.8566,1.8555,1.8587,1.8577,1.8576,1.8595,1.8595,1.8595,1.8573,1.8572,1.8571,1.857,1.8578,1.8579,1.858,1.8608,0,0,1.8584,1.8585,0,0,0,0,0,0,0,0,1.8565,1.8567,1.8579,1.8578,1.8577,1.8582,1.8586,1.86,1.8574,1.8574,1.8571,1.857,1.858,1.8581,1.8585,1.8609,1.8609,1.8584,1.8585,1.8585,1.8586,0,0,0,0,0,0,0,1.8564,1.8566,1.859,1.8579,1.8578,1.8573,1.8573,1.8588,1.8583,1.8574,1.8573,1.8574,1.858,1.8584,1.8585,1.8609,1.8584,1.8585,1.8586,1.8586,1.8658,1.8659,0,0,0,0,0,0,1.8565,1.8566,1.859,1.859,1.8568,1.8574,1.8575,1.8581,1.8583,1.8582,1.8575,1.8573,1.8582,1.8584,1.8585,1.8618,1.8585,1.8587,1.8587,1.8657,1.8658,1.8659,0,0,0,0,0,0,1.8564,1.8567,1.8589,1.8578,1.858,1.8576,1.8583,1.8582,1.8586,1.8583,1.8582,1.858,1.8581,1.8583,1.8603,1.8618,1.8587,1.8588,1.8655,1.8657,1.8659,1.8685,0,0,0,0,0,0,1.8563,1.8567,1.8577,1.8578,1.8581,1.8607,1.8584,1.8583,1.8588,1.8586,1.8588,1.8587,1.8581,1.8601,1.8604,1.862,1.8589,1.8654,1.8656,1.8658,1.8683,1.8687,1.8691,0,0,0,0,0,1.8562,1.8584,1.8578,1.8581,1.8593,1.8608,1.8609,1.8602,1.859,1.86,1.8599,1.8587,1.8617,1.8604,1.8607,1.8623,1.8653,1.8655,1.8658,1.8681,1.8687,1.8691,0,0,0,0,0,0,1.8583,1.8583,1.8577,1.8599,1.8604,1.8604,1.8617,1.8608,1.8616,1.8613,1.8604,1.8604,1.8626,1.8626,1.8612,1.8651,1.8633,1.8636,1.8649,1.8654,1.8659,1.8657,1.859,0,0,0,0,0,1.8591,1.8603,1.8602,1.8622,1.8625,1.8621,1.8627,1.8621,1.8625,1.8627,1.8626,1.8631,1.8641,1.8648,1.8658,1.8684,1.8684,1.8696,1.8701,1.8704,1.8707,1.8721,1.8727,1.8668,1.8668,1.8668,0,0,1.8606,1.8608,1.8615,1.8627,1.8629,1.8642,1.8622,1.8636,1.8645,1.8629,1.8647,1.8648,1.8652,1.8675,1.8685,1.8676,1.8724,1.8708,1.871,1.8711,1.8724,1.873,1.8735,1.8669,1.8669,1.8669,0,0,1.864,1.8643,1.866,1.8664,1.8669,1.8666,1.8671,1.8673,1.8672,1.8691,1.868,1.8691,1.8709,1.8713,1.8717,1.8756,1.8745,1.876,1.8781,1.8796,1.88,1.8804,1.8818,1.8823,1.8762,1.8762,1.8762,0,1.8658,1.8676,1.867,1.8685,1.869,1.8678,1.8695,1.8699,1.8707,1.8711,1.8701,1.8725,1.8727,1.8751,1.8761,1.8765,1.877,1.8758,1.88,1.8804,1.8808,1.8821,1.8826,1.8764,1.8764,1.8764,1.8764,0,1.8698,1.8711,1.8725,1.8733,1.8741,1.8757,1.8754,1.8762,1.8757,1.8756,1.8776,1.8778,1.8789,1.8794,1.8789,1.8818,1.8813,1.8802,1.8783,1.8815,1.8827,1.8832,1.8766,1.8766,1.8765,1.8765,0,0,1.8742,1.875,1.8755,1.8759,1.8765,1.8775,1.8792,1.8802,1.881,1.8817,1.883,1.8847,1.8838,1.8843,1.8838,1.8851,1.8882,1.8839,1.8839,1.8846,1.8915,1.8922,1.8928,1.8876,1.8877,1.8878,1.8914,0,1.8776,1.8804,1.88,1.8827,1.884,1.8829,1.8844,1.8849,1.885,1.8861,1.8861,1.8873,1.886,1.8863,1.8875,1.8875,1.8895,1.8873,1.8888,1.8889,1.8886,1.8934,1.8941,1.8975,1.8919,1.892,1.892,0,1.8817,1.8826,1.8855,1.8861,1.8866,1.8879,1.8889,1.89,1.8907,1.8906,1.8913,1.8907,1.8924,1.8907,1.8931,1.8916,1.8923,1.8924,1.8925,1.8925,1.8905,1.8934,1.8986,1.8991,1.8928,1.8927,1.8927,0,1.8846,1.8866,1.8885,1.889,1.8897,1.8907,1.891,1.8916,1.8923,1.8933,1.8938,1.8949,1.8955,1.8964,1.8961,1.8949,1.8986,1.8969,1.8986,1.8986,1.8992,1.8991,1.9044,1.8999,1.8999,1.8998,1.8998,0,1.8882,1.89,1.8899,1.8911,1.8931,1.8927,1.8948,1.895,1.8956,1.8969,1.8961,1.8973,1.8969,1.8982,1.898,1.9,1.9003,1.9003,1.9002,1.9003,1.9002,1.9005,1.9002,1.9,1.9,1.8999,1.8999,0,1.8916,1.8916,1.8937,1.8944,1.8946,1.896,1.8966,1.8978,1.8979,1.8995,1.8999,1.9,1.9014,1.9013,1.9028,1.9027,1.9052,1.9049,1.905,1.9048,1.9065,1.9063,1.9121,1.9128,1.9079,1.9079,1.908,0,1.8938,1.8952,1.896,1.8969,1.8973,1.8987,1.8995,1.8993,1.9001,1.9012,1.9022,1.9036,1.9047,1.907,1.9072,1.9085,1.9081,1.9101,1.9083,1.9084,1.908,1.9079,1.908,1.9103,1.9104,1.9104,1.9105,0,1.8977,1.8978,1.8989,1.9002,1.9012,1.9022,1.903,1.9038,1.9037,1.9047,1.9062,1.9071,1.9088,1.9102,1.9114,1.9118,1.9111,1.9111,1.9115,1.9115,1.9115,1.9115,1.9058,1.9109,1.9108,1.9108,1.9108,1.9108,1.9005,1.9018,1.9026,1.904,1.9047,1.9056,1.9068,1.9071,1.9084,1.9098,1.9096,1.9113,1.9121,1.9138,1.9143,1.9156,1.9149,1.9156,1.9157,1.9158,1.916,1.9115,1.9159,1.9159,1.9158,1.9158,1.9158,0,1.9044,1.9049,1.9062,1.9076,1.9087,1.9082,1.9092,1.9102,1.9117,1.9126,1.9137,1.9155,1.9169,1.9174,1.9187,1.9197,1.9195,1.9201,1.9199,1.92,1.9166,1.916,1.9203,1.9203,1.9203,1.9203,1.9203,1.9203,1.9064,1.9085,1.9087,1.9111,1.9117,1.9133,1.914,1.9148,1.9156,1.9176,1.9188,1.9192,1.9199,1.9214,1.9227,1.9228,1.9233,1.924,1.924,1.9207,1.9202,1.9198,1.9193,1.9241,1.9241,1.9273,1.9273,1.9273]},{"header":{"parameterUnit":"m.s-1","parameterCategory":1,"la1":30.2991,"la2":30.254,"lo1":-89.0895,"lo2":-89.0444,"dy":0.0017,"dx":0.0017,"nx":28,"ny":28,"refTime":"2025-11-09T03:00:00:Z","depth":0,"parameterNumber":3,"parameterNumberName":"V-component_of_WINDS"},"data":[0,0,0,0,0,0,0,0,0,0,0,0,0,0,0,0,0,0,0,0,0,0,0,0,0,0,0,0,0,0,0,0,0,0,0,0,0,0,0,0,0,0,0,0,0,0,0,0,0,0,0,0,0,0,0,0,0,0,-7.6497,-7.65,0,-7.6717,-7.6719,-7.6722,-7.6619,-7.6613,-7.6608,-7.6602,-7.6823,-7.6834,-7.6845,0,0,0,0,0,0,0,0,0,0,0,0,0,-7.5984,-7.5994,-7.6497,-7.65,-7.6503,-7.6717,-7.672,-7.6723,-7.662,-7.6613,-7.6606,-7.66,-7.682,-7.6833,-7.6846,0,0,0,0,0,0,0,0,0,0,0,0,0,-7.6206,-7.5998,-7.6497,-7.6477,-7.6478,-7.6716,-7.672,-7.6723,-7.6621,-7.6613,-7.6605,-7.6597,-7.6815,-7.6831,-7.6848,-7.7117,0,0,-7.6898,-7.6906,0,0,0,0,0,0,0,0,-7.6193,-7.6225,-7.6477,-7.6479,-7.648,-7.6632,-7.662,-7.6855,-7.6623,-7.6567,-7.6602,-7.6593,-7.6766,-7.6786,-7.6846,-7.7127,-7.7136,-7.69,-7.691,-7.6917,-7.6922,0,0,0,0,0,0,0,-7.6178,-7.6215,-7.6584,-7.6481,-7.6483,-7.6456,-7.6478,-7.6664,-7.671,-7.6571,-7.6564,-7.6592,-7.6765,-7.683,-7.685,-7.714,-7.6899,-7.6914,-7.6924,-7.6931,-7.7651,-7.766,0,0,0,0,0,0,-7.6164,-7.6203,-7.6577,-7.6591,-7.6313,-7.6472,-7.6497,-7.6592,-7.6708,-7.6718,-7.6599,-7.6586,-7.6806,-7.6831,-7.6857,-7.7179,-7.6917,-7.6932,-7.6942,-7.7642,-7.7653,-7.7663,0,0,0,0,0,0,-7.6153,-7.6198,-7.6568,-7.6395,-7.644,-7.649,-7.6597,-7.66,-7.6665,-7.6729,-7.6736,-7.6656,-7.68,-7.6834,-7.7053,-7.7186,-7.694,-7.6955,-7.7632,-7.7646,-7.7658,-7.7826,0,0,0,0,0,0,-7.6139,-7.6195,-7.6299,-7.6398,-7.645,-7.6762,-7.6605,-7.6611,-7.6694,-7.668,-7.6785,-7.6794,-7.6796,-7.7029,-7.707,-7.7204,-7.6968,-7.762,-7.7638,-7.7654,-7.7809,-7.7844,-7.7874,0,0,0,0,0,-7.6121,-7.6337,-7.6305,-7.6351,-7.6581,-7.677,-7.6799,-7.6798,-7.6705,-7.6809,-7.685,-7.6791,-7.7165,-7.7052,-7.7097,-7.7239,-7.7611,-7.7633,-7.7653,-7.7795,-7.7837,-7.7873,0,0,0,0,0,0,-7.6251,-7.6349,-7.6315,-7.657,-7.6663,-7.6752,-7.6884,-7.6843,-7.6963,-7.6945,-7.6937,-7.6961,-7.7188,-7.7235,-7.7108,-7.7504,-7.7373,-7.7404,-7.7466,-7.7507,-7.7539,-7.7523,-7.6982,0,0,0,0,0,-7.6309,-7.6456,-7.6534,-7.6751,-7.6799,-7.6834,-7.6916,-7.6907,-7.7002,-7.7041,-7.7098,-7.7191,-7.7329,-7.742,-7.7551,-7.7815,-7.7836,-7.7934,-7.7967,-7.7993,-7.802,-7.8162,-7.8206,-7.7731,-7.7731,-7.7731,0,0,-7.6431,-7.6503,-7.6596,-7.6779,-7.6849,-7.7,-7.6867,-7.7033,-7.7144,-7.7065,-7.7276,-7.7321,-7.7425,-7.7667,-7.7777,-7.7713,-7.8155,-7.8019,-7.804,-7.8053,-7.8188,-7.8233,-7.8273,-7.7745,-7.7743,-7.7741,0,0,-7.673,-7.68,-7.6988,-7.7062,-7.7172,-7.7193,-7.7238,-7.7335,-7.7362,-7.7574,-7.7518,-7.7649,-7.7888,-7.7964,-7.8034,-7.8361,-7.8311,-7.8404,-7.8574,-7.8712,-7.875,-7.8783,-7.89,-7.8942,-7.843,-7.8431,-7.8431,0,-7.6868,-7.7095,-7.709,-7.726,-7.7342,-7.7278,-7.7468,-7.7539,-7.7685,-7.7742,-7.7669,-7.7967,-7.8032,-7.8291,-7.8372,-7.843,-7.8481,-7.8392,-7.8745,-7.8778,-7.8809,-7.892,-7.8964,-7.8441,-7.844,-7.8439,-7.8438,0,-7.7258,-7.7416,-7.7554,-7.7699,-7.7795,-7.7975,-7.7996,-7.8094,-7.8076,-7.8105,-7.8321,-7.8397,-7.8542,-7.8602,-7.8586,-7.886,-7.8817,-7.8745,-7.8613,-7.8865,-7.8969,-7.9012,-7.8456,-7.8452,-7.8449,-7.8447,0,0,-7.7646,-7.7785,-7.7836,-7.79,-7.8016,-7.8137,-7.8313,-7.8456,-7.854,-7.8643,-7.8789,-7.8992,-7.8926,-7.9006,-7.8997,-7.9119,-7.9374,-7.9032,-7.9034,-7.9093,-7.9679,-7.9733,-7.9782,-7.9341,-7.9349,-7.9355,-7.967,0,-7.7953,-7.8263,-7.8263,-7.8548,-7.8693,-7.8635,-7.8787,-7.8874,-7.8906,-7.9032,-7.9065,-7.921,-7.9112,-7.916,-7.9278,-7.9318,-7.9491,-7.9295,-7.9476,-7.9482,-7.9452,-7.9837,-7.9894,-8.0188,-7.9711,-7.9718,-7.9723,0,-7.8354,-7.8471,-7.8771,-7.8865,-7.8926,-7.9064,-7.9194,-7.9316,-7.9413,-7.9427,-7.9516,-7.9489,-7.9666,-7.9529,-7.9772,-7.9639,-7.9713,-7.9744,-7.9755,-7.9772,-7.9618,-7.9864,-8.0281,-8.0326,-7.9787,-7.9782,-7.9777,0,-7.8607,-7.8839,-7.9048,-7.9105,-7.922,-7.9318,-7.937,-7.9459,-7.9545,-7.9658,-7.9714,-7.9846,-7.9919,-8.0021,-8.003,-7.9929,-8.0275,-8.0138,-8.0291,-8.0291,-8.0366,-8.0362,-8.0802,-8.0414,-8.0413,-8.0412,-8.0412,0,-7.8951,-7.9136,-7.9163,-7.9292,-7.9498,-7.9496,-7.9699,-7.9742,-7.9822,-7.9957,-7.9913,-8.004,-8.0044,-8.0174,-8.0182,-8.0382,-8.0415,-8.043,-8.043,-8.0435,-8.0433,-8.0483,-8.0463,-8.0424,-8.0422,-8.0419,-8.0417,0,-7.9268,-7.9294,-7.9518,-7.9609,-7.9636,-7.9784,-7.986,-7.9983,-8.0009,-8.0181,-8.0221,-8.0263,-8.0414,-8.0432,-8.0608,-8.0613,-8.0854,-8.0832,-8.0822,-8.0819,-8.097,-8.0955,-8.1458,-8.1523,-8.1093,-8.1097,-8.11,0,-7.9486,-7.9628,-7.9734,-7.9822,-7.988,-8.0022,-8.011,-8.0112,-8.0205,-8.0325,-8.0433,-8.0579,-8.0697,-8.094,-8.0985,-8.1118,-8.1099,-8.1266,-8.1119,-8.1119,-8.1102,-8.1094,-8.1108,-8.1295,-8.13,-8.1303,-8.1306,0,-7.987,-7.9876,-8.0004,-8.0138,-8.0244,-8.0349,-8.0448,-8.0522,-8.0536,-8.0642,-8.0797,-8.0888,-8.1067,-8.1213,-8.1345,-8.1396,-8.1355,-8.1352,-8.1395,-8.1401,-8.139,-8.1398,-8.09,-8.1341,-8.1337,-8.1335,-8.1333,-8.1332,-8.0145,-8.0268,-8.0362,-8.0506,-8.0581,-8.0674,-8.0793,-8.0835,-8.0964,-8.1112,-8.1105,-8.1275,-8.1366,-8.1539,-8.16,-8.1732,-8.1677,-8.1738,-8.1754,-8.1769,-8.1784,-8.1368,-8.1756,-8.1755,-8.1754,-8.1753,-8.1752,0,-8.0527,-8.0584,-8.0717,-8.0857,-8.097,-8.0922,-8.1028,-8.1126,-8.1276,-8.1366,-8.1482,-8.1659,-8.18,-8.1857,-8.1994,-8.2089,-8.2073,-8.2125,-8.2118,-8.213,-8.1826,-8.1775,-8.2135,-8.2135,-8.2135,-8.2135,-8.2135,-8.2135,-8.0739,-8.0944,-8.0961,-8.1203,-8.1258,-8.1425,-8.149,-8.1575,-8.1647,-8.1847,-8.1964,-8.2,-8.2076,-8.2219,-8.2346,-8.2358,-8.2411,-8.2472,-8.2476,-8.2191,-8.2152,-8.2115,-8.2068,-8.2483,-8.2484,-8.277,-8.2773,-8.2775]}]]